Location: Borgo
(42.3939°N, 9.2791°E)
Time: 07:14:14
(UTC+00:00)

Cosmos 1464 Rocket - Pass Details

Date: 27 February 2020
Orbit: 952 x 1002 km, 82.9° (Epoch: 30 March)

Event Time Altitude Azimuth Distance (km) Brightness Sun altitude
Rises 18:01:55 0° 174° (S) 3,702 7.0 -10.4°
Reaches altitude 10° 18:04:27 10° 171° (S) 2,761 6.3 -10.9°
Maximum altitude 18:10:41 62° 93° (E) 1,125 4.1 -12.1°
Drops below altitude 10° 18:16:58 10° 14° (NNE) 2,781 6.2 -13.2°
Sets 18:19:32 0° 12° (NNE) 3,732 6.9 -13.7°
